When you browse on this site, cookies collect data to enhance your experience and personalize the content and advertising you see.
Visit our Privacy Policy to learn more. By continuing to use the site, you agree to this use of cookies and data.
  • In France
  • List of Countries
  • For 7 days
  • Water Temperature
  • Weather Map
  • Weather Widgets
  • user-avatar
    Login

    Hourly Weather Accrington

    Today, 19 August, Monday

    Time Temperature Precipitation Wind Pressure Humidity
    00:00 +12°C° 0.2 mm 4 mps 738 mmHg 90%
    01:00 +12°C° 0.2 mm 4 mps 739 mmHg 90%
    02:00 +12°C° 0.2 mm 4 mps 739 mmHg 91%
    03:00 +12°C° 0.2 mm 4 mps 739 mmHg 92%
    04:00 +12°C° 0.1 mm 5 mps 740 mmHg 91%
    05:00 +12°C° 0.1 mm 5 mps 740 mmHg 90%
    06:00 +12°C° 0.1 mm 5 mps 740 mmHg 89%
    07:00 +12°C° 0.2 mm 5 mps 741 mmHg 86%
    08:00 +13°C° 0.2 mm 6 mps 741 mmHg 83%
    09:00 +14°C° 0.2 mm 6 mps 742 mmHg 80%
    10:00 +14°C° 0.6 mm 6 mps 742 mmHg 78%
    11:00 +15°C° 0.6 mm 7 mps 743 mmHg 77%
    12:00 +15°C° 0.6 mm 7 mps 743 mmHg 75%
    13:00 +15°C° 0.1 mm 7 mps 743 mmHg 72%
    14:00 +15°C° 0.1 mm 7 mps 743 mmHg 69%
    15:00 +15°C° 0.1 mm 7 mps 743 mmHg 66%
    16:00 +15°C° 0.1 mm 7 mps 744 mmHg 69%
    17:00 +14°C° 0.1 mm 6 mps 744 mmHg 71%
    18:00 +14°C° 0.1 mm 6 mps 744 mmHg 74%
    19:00 +13°C° 0 mm 5 mps 745 mmHg 77%
    20:00 +12°C° 0 mm 4 mps 745 mmHg 80%
    21:00 +11°C° 0 mm 3 mps 746 mmHg 84%
    22:00 +11°C° 0.1 mm 3 mps 746 mmHg 84%
    23:00 +11°C° 0.1 mm 3 mps 746 mmHg 85%

    Tomorrow, 20 August, Tuesday

    Time Temperature Precipitation Wind Pressure Humidity
    00:00 +10°C° 0.1 mm 3 mps 746 mmHg 86%
    01:00 +10°C° 0.1 mm 4 mps 746 mmHg 87%
    02:00 +10°C° 0.1 mm 4 mps 747 mmHg 87%
    03:00 +10°C° 0.1 mm 4 mps 747 mmHg 87%
    04:00 +9°C° 0.1 mm 5 mps 747 mmHg 87%
    05:00 +9°C° 0.1 mm 5 mps 747 mmHg 88%
    06:00 +9°C° 0.1 mm 6 mps 748 mmHg 88%
    07:00 +10°C° 0.3 mm 6 mps 748 mmHg 88%
    08:00 +10°C° 0.3 mm 6 mps 749 mmHg 87%
    09:00 +11°C° 0.3 mm 6 mps 749 mmHg 87%
    10:00 +11°C° 0.1 mm 6 mps 749 mmHg 84%
    11:00 +13°C° 0.1 mm 6 mps 750 mmHg 81%
    12:00 +13°C° 0.1 mm 6 mps 750 mmHg 77%
    13:00 +14°C° 0 mm 6 mps 750 mmHg 74%
    14:00 +14°C° 0 mm 6 mps 750 mmHg 70%
    15:00 +15°C° 0 mm 6 mps 750 mmHg 66%
    16:00 +15°C° 0 mm 5 mps 751 mmHg 71%
    17:00 +14°C° 0 mm 4 mps 751 mmHg 76%
    18:00 +14°C° 0 mm 4 mps 751 mmHg 81%
    19:00 +13°C° 0 mm 3 mps 751 mmHg 84%
    20:00 +14°C° 0 mm 2 mps 752 mmHg 87%
    21:00 +13°C° 0 mm 2 mps 752 mmHg 89%
    22:00 +13°C° 0 mm 2 mps 752 mmHg 90%
    23:00 +13°C° 0 mm 2 mps 752 mmHg 90%

    Day after tomorrow, 21 August, Wednesday

    Time Temperature Precipitation Wind Pressure Humidity
    00:00 +13°C° 0 mm 2 mps 752 mmHg 91%
    01:00 +12°C° 0 mm 2 mps 752 mmHg 91%
    02:00 +12°C° 0 mm 2 mps 752 mmHg 91%
    03:00 +12°C° 0 mm 2 mps 752 mmHg 92%
    04:00 +12°C° 0 mm 2 mps 751 mmHg 92%
    05:00 +12°C° 0 mm 2 mps 751 mmHg 92%
    06:00 +12°C° 0 mm 2 mps 751 mmHg 92%
    07:00 +12°C° 0 mm 3 mps 751 mmHg 89%
    08:00 +13°C° 0 mm 3 mps 751 mmHg 85%
    09:00 +14°C° 0 mm 3 mps 751 mmHg 82%
    10:00 +15°C° 0.1 mm 4 mps 751 mmHg 77%
    11:00 +16°C° 0.1 mm 5 mps 751 mmHg 72%
    12:00 +17°C° 0.1 mm 5 mps 750 mmHg 67%
    13:00 +17°C° 0.5 mm 5 mps 750 mmHg 69%
    14:00 +17°C° 0.5 mm 5 mps 750 mmHg 71%
    15:00 +16°C° 0.5 mm 5 mps 749 mmHg 74%
    16:00 +16°C° 0.6 mm 5 mps 749 mmHg 76%
    17:00 +15°C° 0.6 mm 5 mps 749 mmHg 79%
    18:00 +14°C° 0.6 mm 4 mps 748 mmHg 81%
    19:00 +14°C° 0.4 mm 4 mps 748 mmHg 83%
    20:00 +13°C° 0.4 mm 4 mps 748 mmHg 85%
    21:00 +13°C° 0.4 mm 4 mps 748 mmHg 88%
    22:00 +13°C° 0.4 mm 4 mps 748 mmHg 88%
    23:00 +13°C° 0.4 mm 4 mps 748 mmHg 89%

    22 August, Thursday

    Time Temperature Precipitation Wind Pressure Humidity
    00:00 +13°C° 0.4 mm 4 mps 748 mmHg 89%
    01:00 +12°C° 0.1 mm 4 mps 748 mmHg 90%
    02:00 +12°C° 0.1 mm 3 mps 748 mmHg 91%
    03:00 +12°C° 0.1 mm 3 mps 748 mmHg 92%
    04:00 +12°C° 0.1 mm 3 mps 748 mmHg 91%
    05:00 +11°C° 0.1 mm 3 mps 749 mmHg 90%
    06:00 +11°C° 0.1 mm 3 mps 749 mmHg 89%
    07:00 +12°C° 0 mm 4 mps 749 mmHg 84%
    08:00 +13°C° 0 mm 4 mps 750 mmHg 80%
    09:00 +14°C° 0 mm 5 mps 750 mmHg 75%
    10:00 +15°C° 0 mm 5 mps 750 mmHg 71%
    11:00 +16°C° 0 mm 5 mps 750 mmHg 67%
    12:00 +16°C° 0 mm 5 mps 750 mmHg 63%
    13:00 +17°C° 0 mm 5 mps 750 mmHg 62%
    14:00 +17°C° 0 mm 5 mps 749 mmHg 62%
    15:00 +19°C° 0 mm 6 mps 749 mmHg 62%
    16:00 +17°C° 0 mm 5 mps 749 mmHg 67%
    17:00 +17°C° 0 mm 5 mps 749 mmHg 71%
    18:00 +18°C° 0 mm 4 mps 749 mmHg 76%
    19:00 +17°C° 0 mm 4 mps 749 mmHg 79%
    20:00 +17°C° 0 mm 4 mps 749 mmHg 82%
    21:00 +15°C° 0 mm 4 mps 749 mmHg 85%
    22:00 +15°C° 0 mm 4 mps 749 mmHg 86%
    23:00 +15°C° 0 mm 4 mps 749 mmHg 88%

    23 August, Friday

    Time Temperature Precipitation Wind Pressure Humidity
    00:00 +15°C° 0 mm 4 mps 749 mmHg 89%
    01:00 +15°C° 0 mm 4 mps 749 mmHg 90%
    02:00 +14°C° 0 mm 4 mps 749 mmHg 90%
    03:00 +14°C° 0 mm 4 mps 749 mmHg 91%
    04:00 +14°C° 0 mm 4 mps 749 mmHg 91%
    05:00 +14°C° 0 mm 4 mps 749 mmHg 91%
    06:00 +14°C° 0 mm 4 mps 749 mmHg 92%
    07:00 +15°C° 0 mm 5 mps 749 mmHg 88%
    08:00 +16°C° 0 mm 5 mps 749 mmHg 84%
    09:00 +17°C° 0 mm 6 mps 749 mmHg 80%
    10:00 +19°C° 0 mm 6 mps 749 mmHg 77%
    11:00 +20°C° 0 mm 6 mps 749 mmHg 73%
    12:00 +21°C° 0 mm 6 mps 749 mmHg 70%
    13:00 +21°C° 0.2 mm 5 mps 749 mmHg 70%
    14:00 +21°C° 0.2 mm 5 mps 749 mmHg 70%
    15:00 +21°C° 0.2 mm 4 mps 749 mmHg 71%
    16:00 +20°C° 0.1 mm 4 mps 749 mmHg 74%
    17:00 +20°C° 0.1 mm 3 mps 748 mmHg 77%
    18:00 +20°C° 0.1 mm 2 mps 748 mmHg 80%
    19:00 +18°C° 0.1 mm 2 mps 749 mmHg 82%
    20:00 +18°C° 0.1 mm 1 mps 749 mmHg 85%
    21:00 +16°C° 0.1 mm 1 mps 749 mmHg 88%
    22:00 +16°C° 0 mm 1 mps 749 mmHg 88%
    23:00 +16°C° 0 mm 1 mps 749 mmHg 89%

    24 August, Saturday

    Time Temperature Precipitation Wind Pressure Humidity
    00:00 +15°C° 0 mm 1 mps 749 mmHg 89%
    01:00 +15°C° 0 mm 1 mps 748 mmHg 89%
    02:00 +15°C° 0 mm 1 mps 748 mmHg 89%
    03:00 +15°C° 0 mm 1 mps 748 mmHg 90%
    04:00 +15°C° 0 mm 1 mps 748 mmHg 89%
    05:00 +15°C° 0 mm 1 mps 747 mmHg 89%
    06:00 +15°C° 0 mm 1 mps 747 mmHg 89%
    07:00 +17°C° 0 mm 2 mps 747 mmHg 85%
    08:00 +18°C° 0 mm 2 mps 747 mmHg 81%
    09:00 +19°C° 0 mm 2 mps 747 mmHg 77%
    10:00 +20°C° 0 mm 3 mps 747 mmHg 71%
    11:00 +21°C° 0 mm 3 mps 747 mmHg 65%
    12:00 +22°C° 0 mm 4 mps 746 mmHg 59%
    13:00 +23°C° 0.1 mm 4 mps 746 mmHg 59%
    14:00 +23°C° 0.1 mm 4 mps 745 mmHg 60%
    15:00 +23°C° 0.1 mm 4 mps 745 mmHg 60%
    16:00 +22°C° 0.6 mm 4 mps 745 mmHg 64%
    17:00 +21°C° 0.6 mm 4 mps 744 mmHg 67%
    18:00 +20°C° 0.6 mm 3 mps 744 mmHg 71%
    19:00 +19°C° 0.6 mm 3 mps 744 mmHg 74%
    20:00 +18°C° 0.6 mm 2 mps 744 mmHg 77%
    21:00 +17°C° 0.6 mm 2 mps 744 mmHg 81%
    22:00 +16°C° 0.1 mm 2 mps 744 mmHg 83%
    23:00 +16°C° 0.1 mm 1 mps 744 mmHg 85%
    Show more